"read_dt","SO2 (ppb)","flags","PMT voltage (V)","lamp voltage (V)","lamp intensity (Hz)","internal temp (C)","react chamber temp (C)","sample flow (l/min)","pres (mmHg)","SO2 bkg (ppb)","SO2 coefficient"
2016-04-21 00:00:00,1951E-3,5C000400,-0724,0834,12188,024.6,045.3,0.261,765.5,01.16,0.508
2016-04-21 00:01:00,2030E-3,5C000400,-0724,0835,12181,024.7,045.3,0.261,765.5,01.16,0.508
2016-04-21 00:02:00,1834E-3,5C000400,-0724,0834,12231,024.6,045.3,0.261,765.5,01.16,0.508
2016-04-21 00:03:00,1913E-3,5C000400,-0724,0834,12112,024.6,045.3,0.261,765.5,01.16,0.508
2016-04-21 00:04:00,2000E-3,5C000400,-0724,0834,12191,024.6,045.3,0.262,765.4,01.16,0.508
2016-04-21 00:05:00,1921E-3,5C000400,-0724,0834,12106,024.6,045.3,0.261,765.4,01.16,0.508
2016-04-21 00:06:00,1850E-3,5C000400,-0724,0834,12255,024.6,045.3,0.261,765.4,01.16,0.508
2016-04-21 00:07:00,1908E-3,5C000400,-0724,0835,12240,024.7,045.3,0.262,765.4,01.16,0.508
2016-04-21 00:08:00,1963E-3,5C000400,-0724,0835,12148,024.6,045.3,0.262,765.4,01.16,0.508
2016-04-21 00:09:00,1826E-3,5C000400,-0724,0835,12114,024.6,045.3,0.262,765.4,01.16,0.508
2016-04-21 00:10:00,1958E-3,5C000400,-0724,0834,12248,024.6,045.3,0.261,765.4,01.16,0.508
2016-04-21 00:11:00,1861E-3,5C000400,-0724,0834,12108,024.6,045.3,0.261,765.4,01.16,0.508
2016-04-21 00:12:00,1783E-3,5C000400,-0724,0834,12190,024.7,045.3,0.261,765.4,01.16,0.508
2016-04-21 00:13:00,1902E-3,5C000400,-0724,0834,12078,024.7,045.3,0.261,765.4,01.16,0.508
2016-04-21 00:14:00,1896E-3,5C000400,-0724,0835,12235,024.7,045.3,0.262,765.4,01.16,0.508
2016-04-21 00:15:00,1923E-3,5C000400,-0724,0834,12159,024.7,045.3,0.261,765.4,01.16,0.508
2016-04-21 00:16:00,2106E-3,5C000400,-0724,0834,12204,024.7,045.3,0.261,765.4,01.16,0.508
2016-04-21 00:17:00,1874E-3,5C000400,-0724,0833,12115,024.7,045.3,0.262,765.4,01.16,0.508
2016-04-21 00:18:00,1816E-3,5C000400,-0724,0835,12175,024.7,045.3,0.261,765.4,01.16,0.508
2016-04-21 00:19:00,1894E-3,5C000400,-0724,0835,12260,024.7,045.3,0.261,765.4,01.16,0.508
2016-04-21 00:20:00,1940E-3,5C000400,-0724,0834,12174,024.7,045.3,0.262,765.4,01.16,0.508
2016-04-21 00:21:00,1771E-3,5C000400,-0724,0835,12123,024.7,045.3,0.261,765.4,01.16,0.508
2016-04-21 00:22:00,1874E-3,5C000400,-0724,0834,12053,024.7,045.3,0.261,765.4,01.16,0.508
2016-04-21 00:23:00,1892E-3,5C000400,-0724,0834,12161,024.7,045.3,0.261,765.4,01.16,0.508
2016-04-21 00:24:00,1818E-3,5C000400,-0724,0834,12234,024.7,045.3,0.261,765.4,01.16,0.508
2016-04-21 00:25:00,1872E-3,5C000400,-0724,0834,12108,024.7,045.3,0.261,765.4,01.16,0.508
2016-04-21 00:26:00,1893E-3,5C000400,-0724,0834,12155,024.7,045.3,0.261,765.5,01.16,0.508
2016-04-21 00:27:00,1936E-3,5C000400,-0724,0834,12012,024.7,045.3,0.261,765.5,01.16,0.508
2016-04-21 00:28:00,1800E-3,5C000400,-0724,0834,12175,024.7,045.3,0.261,765.5,01.16,0.508
2016-04-21 00:29:00,1892E-3,5C000400,-0724,0834,12073,024.7,045.3,0.261,765.5,01.16,0.508
2016-04-21 00:30:00,1781E-3,5C000400,-0724,0835,12216,024.7,045.3,0.261,765.5,01.16,0.508
2016-04-21 00:31:00,1877E-3,5C000400,-0724,0835,12325,024.7,045.3,0.261,765.5,01.16,0.508
2016-04-21 00:32:00,1881E-3,5C000400,-0724,0834,12095,024.8,045.4,0.261,765.5,01.16,0.508
2016-04-21 00:33:00,1930E-3,5C000400,-0724,0834,12102,024.8,045.3,0.261,765.5,01.16,0.508
2016-04-21 00:34:00,1852E-3,5C000400,-0724,0834,12209,024.7,045.3,0.261,765.5,01.16,0.508
2016-04-21 00:35:00,1900E-3,5C000400,-0724,0834,12178,024.7,045.3,0.261,765.5,01.16,0.508
2016-04-21 00:36:00,1819E-3,5C000400,-0724,0834,12011,024.7,045.4,0.261,765.5,01.16,0.508
2016-04-21 00:37:00,1927E-3,5C000400,-0724,0834,12268,024.8,045.3,0.261,765.5,01.16,0.508
2016-04-21 00:38:00,2072E-3,5C000400,-0724,0834,12206,024.8,045.3,0.261,765.5,01.16,0.508
2016-04-21 00:39:00,1990E-3,5C000400,-0724,0835,12141,024.8,045.3,0.261,765.5,01.16,0.508
2016-04-21 00:40:00,1904E-3,5C000400,-0724,0834,12228,024.8,045.3,0.261,765.5,01.16,0.508
2016-04-21 00:41:00,1855E-3,5C000400,-0724,0835,12134,024.8,045.3,0.261,765.5,01.16,0.508
2016-04-21 00:42:00,1880E-3,5C000400,-0724,0834,12193,024.8,045.3,0.261,765.5,01.16,0.508
2016-04-21 00:43:00,1875E-3,5C000400,-0724,0834,12094,024.8,045.3,0.261,765.5,01.16,0.508
2016-04-21 00:44:00,1783E-3,5C000400,-0724,0834,12181,024.8,045.3,0.261,765.5,01.16,0.508
2016-04-21 00:45:00,2008E-3,5C000400,-0724,0833,12134,024.8,045.3,0.261,765.5,01.16,0.508
2016-04-21 00:46:00,1974E-3,5C000400,-0724,0834,12249,024.8,045.3,0.261,765.5,01.16,0.508
2016-04-21 00:47:00,1993E-3,5C000400,-0724,0835,12028,024.8,045.4,0.261,765.5,01.16,0.508
2016-04-21 00:48:00,1896E-3,5C000400,-0724,0833,12069,024.8,045.3,0.261,765.5,01.16,0.508
2016-04-21 00:49:00,1807E-3,5C000400,-0724,0834,12037,024.8,045.3,0.261,765.5,01.16,0.508
2016-04-21 00:50:00,1907E-3,5C000400,-0724,0834,12268,024.8,045.3,0.261,765.5,01.16,0.508
2016-04-21 00:51:00,1836E-3,5C000400,-0724,0835,12077,024.8,045.3,0.261,765.5,01.16,0.508
2016-04-21 00:52:00,1882E-3,5C000400,-0724,0835,12039,024.8,045.3,0.261,765.5,01.16,0.508
2016-04-21 00:53:00,1872E-3,5C000400,-0724,0835,12072,024.8,045.3,0.261,765.5,01.16,0.508
2016-04-21 00:54:00,1899E-3,5C000400,-0724,0834,12238,024.8,045.3,0.261,765.5,01.16,0.508
2016-04-21 00:55:00,1982E-3,5C000400,-0724,0835,12195,024.8,045.3,0.261,765.5,01.16,0.508
2016-04-21 00:56:00,1892E-3,5C000400,-0724,0834,12070,024.8,045.3,0.261,765.5,01.16,0.508
2016-04-21 00:57:00,1697E-3,5C000400,-0724,0834,12164,024.8,045.3,0.261,765.5,01.16,0.508
2016-04-21 00:58:00,1810E-3,5C000400,-0724,0833,12050,024.9,045.3,0.261,765.5,01.16,0.508
2016-04-21 00:59:00,1894E-3,5C000400,-0724,0834,12212,024.8,045.3,0.261,765.5,01.16,0.508
2016-04-21 01:00:00,1833E-3,5C000400,-0724,0834,12178,024.9,045.3,0.261,765.5,01.16,0.508
2016-04-21 01:01:00,1853E-3,5C000400,-0724,0834,12193,024.8,045.3,0.261,765.5,01.16,0.508
2016-04-21 01:02:00,1826E-3,5C000400,-0724,0834,12063,024.8,045.3,0.261,765.5,01.16,0.508
2016-04-21 01:03:00,1768E-3,5C000400,-0724,0834,12140,024.9,045.3,0.261,765.5,01.16,0.508
2016-04-21 01:04:00,1815E-3,5C000400,-0724,0835,12141,024.9,045.3,0.261,765.5,01.16,0.508
2016-04-21 01:05:00,1810E-3,5C000400,-0724,0834,12196,024.9,045.3,0.261,765.5,01.16,0.508
2016-04-21 01:06:00,1761E-3,5C000400,-0724,0834,12085,024.9,045.3,0.261,765.5,01.16,0.508
2016-04-21 01:07:00,1729E-3,5C000400,-0724,0834,12216,024.9,045.3,0.262,765.5,01.16,0.508
2016-04-21 01:08:00,1766E-3,5C000400,-0724,0835,12255,024.9,045.3,0.261,765.4,01.16,0.508
2016-04-21 01:09:00,1943E-3,5C000400,-0724,0834,12193,024.9,045.3,0.261,765.4,01.16,0.508
2016-04-21 01:10:00,1879E-3,5C000400,-0724,0834,12009,024.9,045.3,0.261,765.4,01.16,0.508
2016-04-21 01:11:00,1937E-3,5C000400,-0724,0835,12064,024.9,045.3,0.261,765.4,01.16,0.508
2016-04-21 01:12:00,1713E-3,5C000400,-0724,0835,12078,024.9,045.3,0.261,765.5,01.16,0.508
2016-04-21 01:13:00,1828E-3,5C000400,-0724,0834,12093,024.9,045.3,0.261,765.5,01.16,0.508
2016-04-21 01:14:00,1831E-3,5C000400,-0724,0834,12261,024.9,045.3,0.261,765.4,01.16,0.508
2016-04-21 01:15:00,1753E-3,5C000400,-0724,0834,11925,024.9,045.3,0.260,765.4,01.16,0.508
2016-04-21 01:16:00,1830E-3,5C000400,-0724,0834,12101,024.7,045.3,0.261,765.4,01.16,0.508
2016-04-21 01:17:00,1899E-3,5C000400,-0724,0834,12251,024.5,045.3,0.261,765.5,01.16,0.508
2016-04-21 01:18:00,1701E-3,5C000400,-0724,0834,12083,024.4,045.3,0.261,765.5,01.16,0.508
2016-04-21 01:19:00,1810E-3,5C000400,-0724,0834,12190,024.3,045.3,0.261,765.5,01.16,0.508
2016-04-21 01:20:00,1851E-3,5C000400,-0724,0834,12113,024.1,045.3,0.261,765.5,01.16,0.508
2016-04-21 01:21:00,1645E-3,5C000400,-0724,0833,12181,023.9,045.3,0.261,765.5,01.16,0.508
2016-04-21 01:22:00,1874E-3,5C000400,-0724,0834,12044,023.8,045.3,0.262,765.5,01.16,0.508
2016-04-21 01:23:00,1824E-3,5C000400,-0724,0834,12156,023.6,045.3,0.262,765.5,01.16,0.508
2016-04-21 01:24:00,1859E-3,5C000400,-0724,0835,12074,023.5,045.3,0.262,765.5,01.16,0.508
2016-04-21 01:25:00,1838E-3,5C000400,-0724,0834,12184,023.4,045.3,0.262,765.6,01.16,0.508
2016-04-21 01:26:00,1872E-3,5C000400,-0724,0833,12174,023.2,045.3,0.262,765.6,01.16,0.508
2016-04-21 01:27:00,1862E-3,5C000400,-0724,0834,12272,023.1,045.3,0.263,765.9,01.15,0.508
2016-04-21 01:28:00,1842E-3,5C000400,-0724,0834,12241,023.0,045.3,0.263,765.6,01.16,0.508
2016-04-21 01:29:00,1902E-3,5C000400,-0724,0834,12236,022.9,045.3,0.263,765.6,01.16,0.508
2016-04-21 01:30:00,1754E-3,5C000400,-0724,0833,12220,022.9,045.3,0.263,765.6,01.16,0.508
2016-04-21 01:31:00,1808E-3,5C000400,-0724,0833,12143,022.8,045.3,0.264,765.6,01.16,0.508
2016-04-21 01:32:00,1779E-3,5C000400,-0724,0833,12237,022.8,045.3,0.263,765.6,01.16,0.508
2016-04-21 01:33:00,1776E-3,5C000400,-0724,0833,12070,022.7,045.3,0.263,765.6,01.16,0.508
2016-04-21 01:34:00,1952E-3,5C000400,-0724,0834,12201,022.7,045.3,0.264,765.6,01.16,0.508
2016-04-21 01:35:00,1859E-3,5C000400,-0724,0834,11995,022.6,045.3,0.263,765.6,01.16,0.508
2016-04-21 01:36:00,1832E-3,5C000400,-0724,0833,12155,022.6,045.3,0.264,765.6,01.16,0.508
2016-04-21 01:37:00,1893E-3,5C000400,-0724,0834,12160,022.6,045.3,0.264,765.6,01.16,0.508
2016-04-21 01:38:00,1820E-3,5C000400,-0724,0834,12198,022.6,045.3,0.265,765.6,01.16,0.508
2016-04-21 01:39:00,1817E-3,5C000400,-0724,0834,12082,022.5,045.3,0.264,765.6,01.16,0.508
2016-04-21 01:40:00,1909E-3,5C000400,-0724,0834,12036,022.5,045.3,0.264,765.6,01.16,0.508
2016-04-21 01:41:00,1851E-3,5C000400,-0724,0834,12150,022.6,045.3,0.265,765.6,01.16,0.508
2016-04-21 01:42:00,1940E-3,5C000400,-0724,0834,12026,022.7,045.3,0.264,765.6,01.16,0.508
2016-04-21 01:43:00,1853E-3,5C000400,-0724,0833,12185,022.8,045.3,0.264,765.6,01.16,0.508
2016-04-21 01:44:00,1868E-3,5C000400,-0724,0834,12085,022.8,045.3,0.264,765.6,01.16,0.508
2016-04-21 01:45:00,1788E-3,5C000400,-0724,0834,12129,022.9,045.3,0.264,765.7,01.16,0.508
2016-04-21 01:46:00,1780E-3,5C000400,-0724,0834,11986,023.0,045.3,0.264,765.7,01.16,0.508
2016-04-21 01:47:00,1833E-3,5C000400,-0724,0834,12153,023.0,045.3,0.264,765.6,01.16,0.508
2016-04-21 01:48:00,1908E-3,5C000400,-0724,0834,12208,023.1,045.3,0.264,765.7,01.16,0.508
2016-04-21 01:49:00,1843E-3,5C000400,-0724,0834,12196,023.2,045.3,0.264,765.7,01.16,0.508
2016-04-21 01:50:00,1805E-3,5C000400,-0724,0834,12078,023.2,045.3,0.264,765.7,01.16,0.508
2016-04-21 01:51:00,1828E-3,5C000400,-0724,0834,12037,023.3,045.3,0.264,765.7,01.16,0.508
2016-04-21 01:52:00,1929E-3,5C000400,-0724,0834,11923,023.4,045.3,0.264,765.7,01.16,0.508
2016-04-21 01:53:00,1821E-3,5C000400,-0724,0834,12093,023.4,045.3,0.264,765.7,01.16,0.508
2016-04-21 01:54:00,1908E-3,5C000400,-0724,0833,12101,023.5,045.3,0.264,765.7,01.16,0.508
2016-04-21 01:55:00,1908E-3,5C000400,-0724,0834,12176,023.6,045.3,0.264,765.7,01.16,0.508
2016-04-21 01:56:00,1726E-3,5C000400,-0724,0834,12119,023.6,045.3,0.264,765.7,01.16,0.508
2016-04-21 01:57:00,1740E-3,5C000400,-0724,0835,12210,023.7,045.3,0.263,765.7,01.16,0.508
2016-04-21 01:58:00,1868E-3,5C000400,-0724,0834,12098,023.8,045.3,0.263,765.7,01.16,0.508
2016-04-21 01:59:00,1899E-3,5C000400,-0724,0834,12178,023.8,045.3,0.263,765.7,01.16,0.508
2016-04-21 02:00:00,1838E-3,5C000400,-0724,0834,12264,023.9,045.3,0.263,765.7,01.16,0.508
2016-04-21 02:01:00,2018E-3,5C000400,-0724,0834,12079,024.0,045.3,0.263,765.6,01.16,0.508
2016-04-21 02:02:00,1973E-3,5C000400,-0724,0834,12178,024.0,045.3,0.263,765.7,01.16,0.508
2016-04-21 02:03:00,1818E-3,5C000400,-0724,0834,12063,024.1,045.3,0.263,765.6,01.16,0.508
2016-04-21 02:04:00,1806E-3,5C000400,-0724,0834,12137,024.1,045.3,0.263,765.6,01.16,0.508
2016-04-21 02:05:00,1817E-3,5C000400,-0724,0834,12098,024.2,045.3,0.262,765.6,01.16,0.508
2016-04-21 02:06:00,1941E-3,5C000400,-0724,0834,12089,024.2,045.3,0.262,765.6,01.16,0.508
2016-04-21 02:07:00,1819E-3,5C000400,-0724,0834,12242,024.3,045.3,0.262,765.6,01.16,0.508
2016-04-21 02:08:00,1747E-3,5C000400,-0724,0834,12242,024.4,045.3,0.263,765.6,01.16,0.508
2016-04-21 02:09:00,1811E-3,5C000400,-0724,0834,12160,024.4,045.3,0.263,765.6,01.16,0.508
2016-04-21 02:10:00,1954E-3,5C000400,-0724,0834,12202,024.5,045.3,0.262,765.6,01.16,0.508
2016-04-21 02:11:00,1805E-3,5C000400,-0724,0834,12287,024.6,045.3,0.262,765.6,01.16,0.508
2016-04-21 02:12:00,1709E-3,5C000400,-0724,0835,12182,024.6,045.3,0.262,765.6,01.16,0.508
2016-04-21 02:13:00,1973E-3,5C000400,-0724,0834,12107,024.6,045.3,0.262,765.6,01.16,0.508
2016-04-21 02:14:00,1864E-3,5C000400,-0724,0835,12190,024.7,045.3,0.262,765.6,01.16,0.508
2016-04-21 02:15:00,1864E-3,5C000400,-0724,0835,12134,024.7,045.3,0.261,765.6,01.16,0.508
2016-04-21 02:16:00,1737E-3,5C000400,-0724,0834,12092,024.7,045.4,0.261,765.6,01.16,0.508
2016-04-21 02:17:00,1995E-3,5C000400,-0724,0834,12195,024.8,045.4,0.261,765.6,01.16,0.508
2016-04-21 02:18:00,1920E-3,5C000400,-0724,0834,12088,024.9,045.3,0.261,765.6,01.16,0.508
2016-04-21 02:19:00,1851E-3,5C000400,-0724,0835,12306,024.9,045.3,0.261,765.6,01.16,0.508
2016-04-21 02:20:00,1786E-3,5C000400,-0724,0834,12202,024.9,045.3,0.261,765.6,01.16,0.508
2016-04-21 02:21:00,1852E-3,5C000400,-0724,0834,12207,025.0,045.3,0.261,765.6,01.16,0.508
2016-04-21 02:22:00,1781E-3,5C000400,-0724,0834,12068,025.0,045.3,0.261,765.6,01.16,0.508
2016-04-21 02:23:00,1773E-3,5C000400,-0724,0835,12170,025.1,045.3,0.261,765.6,01.16,0.508
2016-04-21 02:24:00,1925E-3,5C000400,-0724,0835,12113,025.1,045.3,0.261,765.6,01.16,0.508
2016-04-21 02:25:00,1848E-3,5C000400,-0724,0835,12187,025.2,045.3,0.261,765.6,01.16,0.508
2016-04-21 02:26:00,1789E-3,5C000400,-0724,0834,11980,025.2,045.3,0.261,765.6,01.16,0.508
2016-04-21 02:27:00,1869E-3,5C000400,-0724,0833,12174,025.2,045.3,0.261,765.6,01.16,0.508
2016-04-21 02:28:00,1910E-3,5C000400,-0724,0835,12149,025.3,045.3,0.261,765.6,01.16,0.508
2016-04-21 02:29:00,1714E-3,5C000400,-0724,0834,12101,025.3,045.3,0.260,765.6,01.16,0.508
2016-04-21 02:30:00,1913E-3,5C000400,-0724,0835,12079,025.3,045.3,0.260,765.6,01.16,0.508
2016-04-21 02:31:00,1870E-3,5C000400,-0724,0834,12094,025.3,045.3,0.260,765.6,01.16,0.508
2016-04-21 02:32:00,1839E-3,5C000400,-0724,0834,12200,025.4,045.3,0.260,765.6,01.16,0.508
2016-04-21 02:33:00,1916E-3,5C000400,-0724,0834,12200,025.4,045.4,0.260,765.6,01.16,0.508
2016-04-21 02:34:00,1794E-3,5C000400,-0724,0835,12106,025.4,045.3,0.260,765.6,01.16,0.508
2016-04-21 02:35:00,1774E-3,5C000400,-0724,0834,12124,025.5,045.3,0.260,765.6,01.16,0.508
2016-04-21 02:36:00,1923E-3,5C000400,-0724,0834,12241,025.5,045.3,0.260,765.6,01.16,0.508
2016-04-21 02:37:00,1913E-3,5C000400,-0724,0834,12068,025.6,045.3,0.260,765.5,01.16,0.508
2016-04-21 02:38:00,1757E-3,5C000400,-0724,0835,12057,025.6,045.3,0.260,765.5,01.16,0.508
2016-04-21 02:39:00,1913E-3,5C000400,-0724,0835,12126,025.6,045.4,0.260,765.5,01.16,0.508
2016-04-21 02:40:00,1861E-3,5C000400,-0724,0835,12219,025.6,045.4,0.260,765.5,01.16,0.508
2016-04-21 02:41:00,1922E-3,5C000400,-0724,0834,12200,025.7,045.3,0.260,765.5,01.16,0.508
2016-04-21 02:42:00,1881E-3,5C000400,-0724,0834,12068,025.7,045.4,0.260,765.6,01.16,0.508
2016-04-21 02:43:00,1892E-3,5C000400,-0724,0835,12149,025.7,045.4,0.260,765.5,01.16,0.508
2016-04-21 02:44:00,1896E-3,5C000400,-0724,0833,12189,025.8,045.4,0.260,765.5,01.16,0.508
2016-04-21 02:45:00,1833E-3,5C000400,-0724,0834,12108,025.8,045.4,0.259,765.5,01.16,0.508
2016-04-21 02:46:00,1969E-3,5C000400,-0724,0835,12151,025.8,045.3,0.259,765.6,01.16,0.508
2016-04-21 02:47:00,1774E-3,5C000400,-0724,0835,12183,025.8,045.4,0.259,765.6,01.16,0.508
2016-04-21 02:48:00,1820E-3,5C000400,-0724,0834,12153,025.8,045.4,0.259,765.6,01.16,0.508
2016-04-21 02:49:00,1831E-3,5C000400,-0724,0834,12259,025.9,045.4,0.260,765.6,01.16,0.508
2016-04-21 02:50:00,1937E-3,5C000400,-0724,0834,12170,025.9,045.4,0.260,765.6,01.16,0.508
2016-04-21 02:51:00,1799E-3,5C000400,-0724,0834,12118,025.9,045.4,0.259,765.6,01.16,0.508
2016-04-21 02:52:00,1831E-3,5C000400,-0724,0834,12281,025.9,045.4,0.259,765.6,01.16,0.508
2016-04-21 02:53:00,1851E-3,5C000400,-0724,0835,12149,026.0,045.4,0.259,765.6,01.16,0.508
2016-04-21 02:54:00,1786E-3,5C000400,-0724,0834,12229,026.0,045.4,0.259,765.6,01.16,0.508
2016-04-21 02:55:00,1822E-3,5C000400,-0724,0834,12211,026.0,045.4,0.259,765.6,01.16,0.508
2016-04-21 02:56:00,1816E-3,5C000400,-0724,0835,11973,026.0,045.4,0.259,765.6,01.16,0.508
2016-04-21 02:57:00,1794E-3,5C000400,-0724,0835,11971,026.1,045.4,0.259,765.6,01.16,0.508
2016-04-21 02:58:00,1907E-3,5C000400,-0724,0834,12238,026.1,045.4,0.259,765.6,01.16,0.508
2016-04-21 02:59:00,1836E-3,5C000400,-0724,0834,12026,026.1,045.4,0.259,765.6,01.16,0.508
2016-04-21 03:00:00,1895E-3,5C000400,-0724,0835,12211,026.1,045.4,0.259,765.6,01.16,0.508
2016-04-21 03:01:00,1910E-3,5C000400,-0724,0834,11828,026.1,045.4,0.259,765.6,01.16,0.508
2016-04-21 03:02:00,1789E-3,5C000400,-0724,0835,12040,026.1,045.4,0.259,765.6,01.16,0.508
2016-04-21 03:03:00,1922E-3,5C000400,-0724,0834,12219,026.1,045.4,0.259,765.6,01.16,0.508
2016-04-21 03:04:00,1958E-3,5C000400,-0724,0834,12115,026.2,045.4,0.259,765.6,01.16,0.508
2016-04-21 03:05:00,1788E-3,5C000400,-0724,0835,12364,026.2,045.4,0.258,765.6,01.16,0.508
2016-04-21 03:06:00,1769E-3,5C000400,-0724,0835,12252,026.2,045.4,0.258,765.6,01.16,0.508
2016-04-21 03:07:00,1855E-3,5C000400,-0724,0834,11962,026.2,045.4,0.259,765.6,01.16,0.508
2016-04-21 03:08:00,1872E-3,5C000400,-0724,0834,12148,026.3,045.4,0.259,765.5,01.16,0.508
2016-04-21 03:09:00,2071E-3,5C000400,-0724,0835,12149,026.3,045.4,0.259,765.5,01.16,0.508
2016-04-21 03:10:00,1793E-3,5C000400,-0724,0834,12145,026.3,045.4,0.258,765.5,01.16,0.508
2016-04-21 03:11:00,1849E-3,5C000400,-0724,0834,12167,026.3,045.4,0.259,765.6,01.16,0.508
2016-04-21 03:12:00,1894E-3,5C000400,-0724,0834,12090,026.3,045.4,0.259,765.6,01.16,0.508
2016-04-21 03:13:00,1961E-3,5C000400,-0724,0834,12057,026.3,045.4,0.259,765.6,01.16,0.508
2016-04-21 03:14:00,1990E-3,5C000400,-0724,0835,12311,026.3,045.4,0.258,765.6,01.16,0.508
2016-04-21 03:15:00,1835E-3,5C000400,-0724,0835,12072,026.3,045.4,0.258,765.6,01.16,0.508
2016-04-21 03:16:00,1967E-3,5C000400,-0724,0835,12124,026.4,045.4,0.259,765.6,01.16,0.508
2016-04-21 03:17:00,1829E-3,5C000400,-0724,0835,12137,026.4,045.4,0.258,765.6,01.16,0.508
2016-04-21 03:18:00,1955E-3,5C000400,-0724,0835,12196,026.4,045.4,0.258,765.6,01.16,0.508
2016-04-21 03:19:00,1919E-3,5C000400,-0724,0835,12153,026.4,045.4,0.259,765.6,01.16,0.508
2016-04-21 03:20:00,1859E-3,5C000400,-0724,0835,12121,026.4,045.4,0.258,765.6,01.16,0.508
2016-04-21 03:21:00,1765E-3,5C000400,-0724,0835,12208,026.4,045.4,0.258,765.6,01.16,0.508
2016-04-21 03:22:00,1948E-3,5C000400,-0724,0834,12106,026.4,045.4,0.259,765.6,01.16,0.508
2016-04-21 03:23:00,1865E-3,5C000400,-0724,0834,12134,026.4,045.4,0.258,765.6,01.16,0.508
2016-04-21 03:24:00,1760E-3,5C000400,-0724,0835,12160,026.4,045.4,0.258,765.6,01.16,0.508
2016-04-21 03:25:00,1969E-3,5C000400,-0724,0835,12092,026.5,045.4,0.259,765.6,01.16,0.508
2016-04-21 03:26:00,1860E-3,5C000400,-0724,0834,12329,026.4,045.4,0.258,765.6,01.16,0.508
2016-04-21 03:27:00,1818E-3,5C000400,-0724,0835,12232,026.4,045.3,0.258,765.6,01.16,0.508
2016-04-21 03:28:00,1831E-3,5C000400,-0724,0836,12262,026.4,045.4,0.258,765.6,01.16,0.508
2016-04-21 03:29:00,1798E-3,5C000400,-0724,0835,12053,026.5,045.4,0.258,765.6,01.16,0.508
2016-04-21 03:30:00,1607E-3,5C000400,-0724,0835,12253,026.5,045.4,0.258,765.5,01.16,0.508
2016-04-21 03:31:00,2014E-3,5C000400,-0724,0835,12142,026.5,045.4,0.258,765.5,01.16,0.508
2016-04-21 03:32:00,1827E-3,5C000400,-0724,0835,12084,026.5,045.4,0.258,765.5,01.16,0.508
2016-04-21 03:33:00,1740E-3,5C000400,-0724,0835,12155,026.5,045.4,0.258,765.5,01.16,0.508
2016-04-21 03:34:00,1871E-3,5C000400,-0724,0834,12095,026.5,045.4,0.258,765.5,01.16,0.508
2016-04-21 03:35:00,1856E-3,5C000400,-0724,0835,12229,026.5,045.4,0.258,765.5,01.16,0.508
2016-04-21 03:36:00,1853E-3,5C000400,-0724,0835,12184,026.5,045.4,0.258,765.5,01.16,0.508
2016-04-21 03:37:00,1819E-3,5C000400,-0724,0835,12082,026.5,045.4,0.258,765.5,01.16,0.508
2016-04-21 03:38:00,1815E-3,5C000400,-0724,0835,12274,026.5,045.4,0.258,765.5,01.16,0.508
2016-04-21 03:39:00,1851E-3,5C000400,-0724,0834,12163,026.5,045.4,0.258,765.5,01.16,0.508
2016-04-21 03:40:00,1864E-3,5C000400,-0724,0834,12066,026.5,045.4,0.258,765.5,01.16,0.508
2016-04-21 03:41:00,1868E-3,5C000400,-0724,0835,12351,026.5,045.4,0.258,765.5,01.16,0.508
2016-04-21 03:42:00,1836E-3,5C000400,-0724,0835,12194,026.5,045.4,0.258,765.5,01.16,0.508
2016-04-21 03:43:00,1926E-3,5C000400,-0724,0835,12112,026.5,045.4,0.258,765.5,01.16,0.508
2016-04-21 03:44:00,1897E-3,5C000400,-0724,0835,12224,026.5,045.4,0.258,765.5,01.16,0.508
2016-04-21 03:45:00,1891E-3,5C000400,-0724,0835,12236,026.5,045.4,0.258,765.5,01.16,0.508
2016-04-21 03:46:00,1877E-3,5C000400,-0724,0834,12142,026.5,045.4,0.258,765.5,01.16,0.508
2016-04-21 03:47:00,1873E-3,5C000400,-0724,0835,12064,026.5,045.4,0.258,765.5,01.16,0.508
2016-04-21 03:48:00,1914E-3,5C000400,-0724,0835,12055,026.5,045.4,0.258,765.5,01.16,0.508
2016-04-21 03:49:00,1826E-3,5C000400,-0724,0834,12062,026.5,045.4,0.258,765.5,01.16,0.508
2016-04-21 03:50:00,1967E-3,5C000400,-0724,0834,12072,026.5,045.4,0.258,765.5,01.16,0.508
2016-04-21 03:51:00,1824E-3,5C000400,-0724,0835,12191,026.5,045.4,0.258,765.5,01.16,0.508
2016-04-21 03:52:00,1900E-3,5C000400,-0724,0835,12299,026.5,045.4,0.258,765.5,01.16,0.508
2016-04-21 03:53:00,1925E-3,5C000400,-0724,0834,11973,026.5,045.4,0.258,765.5,01.16,0.508
2016-04-21 03:54:00,1769E-3,5C000400,-0724,0835,12128,026.5,045.4,0.258,765.6,01.16,0.508
2016-04-21 03:55:00,1753E-3,5C000400,-0724,0835,11988,026.5,045.4,0.258,765.6,01.16,0.508
2016-04-21 03:56:00,1882E-3,5C000400,-0724,0835,12133,026.5,045.4,0.258,765.5,01.16,0.508
2016-04-21 03:57:00,1751E-3,5C000400,-0724,0835,12128,026.5,045.4,0.258,765.5,01.16,0.508
2016-04-21 03:58:00,1834E-3,5C000400,-0724,0834,12154,026.5,045.4,0.258,765.6,01.16,0.508
2016-04-21 03:59:00,1808E-3,5C000400,-0724,0834,12116,026.5,045.4,0.258,765.6,01.16,0.508
2016-04-21 04:00:00,1857E-3,5C000400,-0724,0835,12253,026.6,045.4,0.258,765.6,01.16,0.508
2016-04-21 04:01:00,1852E-3,5C000400,-0724,0835,12212,026.6,045.4,0.258,765.6,01.16,0.508
2016-04-21 04:02:00,1777E-3,5C000400,-0724,0834,12084,026.5,045.4,0.258,765.6,01.16,0.508
2016-04-21 04:03:00,1863E-3,5C000400,-0724,0834,12242,026.5,045.4,0.258,765.6,01.16,0.508
2016-04-21 04:04:00,1846E-3,5C000400,-0724,0835,12110,026.5,045.4,0.258,765.6,01.16,0.508
2016-04-21 04:05:00,1910E-3,5C000400,-0724,0835,12108,026.5,045.4,0.258,765.6,01.16,0.508
2016-04-21 04:06:00,1827E-3,5C000400,-0724,0835,12077,026.6,045.4,0.258,765.6,01.16,0.508
2016-04-21 04:07:00,1834E-3,5C000400,-0724,0834,12001,026.6,045.4,0.258,765.6,01.16,0.508
2016-04-21 04:08:00,1606E-3,5C000400,-0724,0834,12259,026.6,045.4,0.258,765.5,01.16,0.508
2016-04-21 04:09:00,1844E-3,5C000400,-0724,0835,12119,026.6,045.4,0.259,765.5,01.16,0.508
2016-04-21 04:10:00,1785E-3,5C000400,-0724,0834,12178,026.6,045.4,0.258,765.5,01.16,0.508
2016-04-21 04:11:00,1816E-3,5C000400,-0724,0835,12112,026.6,045.4,0.258,765.6,01.16,0.508
2016-04-21 04:12:00,1937E-3,5C000400,-0724,0834,12200,026.6,045.4,0.258,765.6,01.16,0.508
2016-04-21 04:13:00,1927E-3,5C000400,-0724,0835,12148,026.6,045.4,0.258,765.6,01.16,0.508
2016-04-21 04:14:00,1880E-3,5C000400,-0724,0835,12153,026.6,045.4,0.258,765.6,01.16,0.508
2016-04-21 04:15:00,1787E-3,5C000400,-0724,0835,12147,026.6,045.4,0.258,765.6,01.16,0.508
2016-04-21 04:16:00,1854E-3,5C000400,-0724,0835,12250,026.6,045.4,0.258,765.6,01.16,0.508
2016-04-21 04:17:00,1866E-3,5C000400,-0724,0835,11953,026.6,045.4,0.258,765.6,01.16,0.508
2016-04-21 04:18:00,1901E-3,5C000400,-0724,0835,12268,026.6,045.4,0.258,765.6,01.16,0.508
2016-04-21 04:19:00,1839E-3,5C000400,-0724,0835,11997,026.6,045.4,0.258,765.6,01.16,0.508
2016-04-21 04:20:00,1847E-3,5C000400,-0724,0835,12191,026.6,045.4,0.258,765.6,01.16,0.508